Погода в Разномойке

Россия / Оренбургская область     52°29′10″N   55°52′27″E
темп.,
°C
ветер,
м/с
пор.,
м/с
влажн.,
%
обл.,
%
осадки,
мм/ч
давл.,
гПа
погр.,
м
1 марта, пн
пн123:00−11с359492 0.4 1009124
02:00−13ссз349586 0.1 1011107
05:00−14ссз229690 0.3 101347
08:00−15ссз229696 0.1 101565
11:00−15ссз229379 0.1 1017153
14:00−12зсз228994 0.1 1018342
17:00−13з339397 0.1 1018250
20:00−16зсз3495100 0.1 101980
2 марта, вт
вт223:00−21зсз129988 0.1 102020
02:00−22з1210074 0.0 102120
05:00−23зюз1110077 0.1 102120
08:00−24ю2310099 0.0 102020
11:00−20ю479896 0.1 1019224
14:00−16ю61195100 0.1 1015437
17:00−12ююз71395100 1.0 1013569
20:00−10ююз71495100 1.7 1010663
3 марта, ср
ср323:00−5юз71395100 2.9 1008777
02:00−4юз71396100 1.6 1005729
05:00−4юз61296100 3.3 1004618
08:00−3юз51097100 1.6 1003503
11:00−2юз5896100 2.6 1003480
14:00−1юз4697100 0.7 1002446
17:00−1з3594100 1.1 1002445
20:00−7сз239177 0.1 100322
4 марта, чт
чт423:00−10сз229756 0.1 100421
02:00−9зсз2397100 0.1 100448
05:00−12з349796 0.2 100688
08:00−11зсз4896100 0.3 1008233
11:00−10зсз599399 0.4 1010343
14:00−9з479290 0.0 1011421
17:00−8юз499394 0.1 1012434
20:00−9ююз51295100 0.3 1012481
5 марта, пт
пт523:00−6юз71393100 0.5 1011799
02:00−4юз81494100 0.3 1009931
05:00−3юз81592100 0.7 1009961
08:00−3юз91691100 0.1 1009908
11:00−2юз101592100 0.3 1009942
14:00−1юз101596100 0.8 1010927
17:00−1юз81397100 2.5 1011904
20:000юз61398100 2.3 1011840